Regional Weather Roundup
Issued by NWS

Home | Current Version | Previous Version | Graphics & Text | Print | Product List | Glossary On
Versions: 1 2 3 4 5 6 7 8 9 10 11 12 13 14 15 16 17 18 19 20 21 22 23 24 25 26 27 28 29 30 31 32 33 34 35 36 37 38 39 40 41 42 43 44 45 46 47 48 49 50
000
ASUS43 KFSD 282002
RWRSD

WEATHER ROUNDUP FOR SOUTH DAKOTA
NATIONAL WEATHER SERVICE SIOUX FALLS SD
200 PM CST FRI NOV 28 2014

NOTE: "FAIR" INDICATES FEW OR NO CLOUDS BELOW 12,000 FEET WITH NO
SIGNIFICANT WEATHER AND/OR OBSTRUCTIONS TO VISIBILITY.


SDZ001>005-009-010-012>017-282100-
NORTHWEST AND NORTH CENTRAL SOUTH DAKOTA

CITY           SKY/WX    TMP DP  RH WIND       PRES   REMARKS
BUFFALO          N/A     51  33  50 SW5       29.50F
FAITH            N/A     50  29  44 S10       29.58F
MOBRIDGE       SUNNY     28  21  75 E9        29.61F WCI  19
$$

SDZ012>016-024>037-041>051-057-063-072>074-282100-
SOUTHWEST AND SOUTH CENTRAL SOUTH DAKOTA

CITY           SKY/WX    TMP DP  RH WIND       PRES   REMARKS
RAPID CTY ARPT MOSUNNY   63  34  33 SE9       29.59F
PIERRE         SUNNY     40  24  53 E5        29.62F
CUSTER         SUNNY     50  22  33 SW8G18    29.69F
ELLSWORTH AFB  MOSUNNY   61  35  37 SE7       29.59F
PHILIP         SUNNY     63  31  30 W10       29.61F
PINE RIDGE     SUNNY     63  29  27 W12G18    29.66F
WINNER         FAIR      56  30  37 W9        29.63F
$$

SDZ004>011-016>023-039-040-282100-
NORTHEAST SOUTH DAKOTA

CITY           SKY/WX    TMP DP  RH WIND       PRES   REMARKS
ABERDEEN       MOSUNNY   22  15  75 NE9       29.71F WCI  12
WATERTOWN      PTSUNNY   21  15  78 E6        29.67F WCI  13
SISSETON         N/A     18  13  80 S10       29.75F WCI   6
$$

SDZ017-020-022-023-036>040-048>070-282100-
SOUTHEAST SOUTH DAKOTA

CITY           SKY/WX    TMP DP  RH WIND       PRES   REMARKS
SIOUX FALLS    PTSUNNY   32  26  78 E10       29.68F WCI  24
HURON          MOSUNNY   37  24  59 NW3       29.67F
MITCHELL       MOSUNNY   40  27  59 SE10      29.66F
YANKTON        SUNNY     43  28  56 E10       29.65F
$$

ABBREVIATIONS USED IN REMARKS
   TC - TEMPERATURE IN CELSIUS
  WCI - WIND CHILL INDEX
   HX - HEAT INDEX
  VSB - VISIBILITY



USA.gov is the U.S. government's official web portal to all federal, state and local government web resources and services.